Flag for Germany Weather past 2 weeks in Dillenburg, Hesse, Germany

Now
41 °F

Overcast.


Feels Like: 37 °F
Forecast: 37 / 42 °F
Wind: 7 mph from Southwest

Location: Giessen

Current Time: Dec 20, 2014 at 4:16:07 AM

Latest Report: Dec 20, 2014 at 4:00 AM


Visibility: 34 mi

Pressure: 30.18 "Hg

Humidity: 85%

Dew point: 37 °F

Location of DillenburgLocation

Historic Weather in Dillenburg — Graph

°F

Dillenburg temperature yesterday

Maximum temperature yesterday: 53 °F (at 2:00 AM)
Minimum temperature yesterday: 41 °F (at 9:00 PM)
Average temperature yesterday: 49 °F

Past Weeks' High & Low Weather Summary

 TemperatureHumidityPressure
High54 °F (Dec 18, 9:00 PM)100% (Dec 5, 3:00 AM)30.44 "Hg (Dec 5, 3:00 AM)
Low27 °F (Dec 9, 3:00 AM)73% (Dec 7, 3:00 PM)29.54 "Hg (Dec 12, 6:00 PM)
Average39 °F95%30.01 "Hg
* Reported Dec 5 3:00 AM — Dec 20 3:00 AM, Dillenburg, Weather by CustomWeather, © 2014

Note: Actual official high and low records may vary slightly from our data, if they occured in-between our weather recording intervals... More about our weather records

Advertising

Dillenburg weather history for previous 24 hours

 ConditionsComfort  
Time TempWeatherWind HumidityBarometerVisibility
3:00 AM
Dec 20
41 °FOvercast.7 mph88%30.18 "Hg31 mi
2:00 AM41 °FOvercast.7 mph89%30.17 "Hg28 mi
1:00 AM39 °FPassing clouds.6 mph90%30.15 "Hg22 mi
12:00 AM42 °FOvercast.6 mph83%30.14 "Hg28 mi
11:00 PM
Dec 19
43 °FOvercast.7 mph81%30.12 "Hg31 mi
10:00 PM42 °FOvercast.7 mph81%30.10 "Hg31 mi
9:00 PM41 °FPassing clouds.3 mph84%30.08 "Hg34 mi
8:00 PM43 °FOvercast.7 mph80%30.03 "Hg43 mi
7:00 PM45 °FOvercast.12 mph77%29.98 "Hg43 mi
6:00 PM47 °FOvercast.8 mph90%29.94 "Hg43 mi
5:00 PM49 °FLight rain. Low clouds.7 mph93%29.90 "Hg43 mi
4:00 PM50 °FRain. Low clouds.9 mph95%29.87 "Hg9 mi
3:00 PM50 °FLight freezing rain. Low clouds.9 mph95%29.86 "Hg17 mi
2:00 PM50 °FRain. Low clouds.10 mph96%29.87 "Hg6 mi
1:00 PM50 °FRain. Low clouds.12 mph95%29.89 "Hg9 mi
12:00 PM50 °FRain. Low clouds.10 mph96%29.91 "Hg9 mi
11:00 AM51 °FLow clouds.13 mph90%29.92 "Hg25 mi
10:00 AM50 °FLight freezing rain. Low clouds.13 mph92%29.92 "Hg13 mi
9:00 AM51 °FOvercast.12 mph86%29.92 "Hg43 mi
8:00 AM51 °FOvercast.10 mph85%29.93 "Hg43 mi
7:00 AM51 °FOvercast.9 mph88%29.94 "Hg43 mi
6:00 AM50 °FFog.8 mph93%29.95 "Hg4 mi
5:00 AM50 °FLow clouds.10 mph92%29.96 "Hg18 mi
4:00 AM51 °FLow clouds.10 mph88%29.97 "Hg43 mi
Weather by CustomWeather, © 2014

See weather overviewHow to use our weather pages